Regional Weather Roundup
Issued by NWS Newport/Morehead, NC

Current Version | Previous Version | Text Only | Print | Product List | Glossary On
Versions: 1 2 3 4 5 6 7 8 9 10 11 12 13 14 15 16 17 18 19 20 21 22 23 24 25 26 27 28 29 30 31 32 33 34 35 36 37 38 39 40 41 42 43 44 45 46 47 48 49 50
000
ASUS42 KMHX 310222
RWRMHX
WEATHER ROUNDUP FOR EASTERN NORTH CAROLINA
NATIONAL WEATHER SERVICE NEWPORT/MOREHEAD CITY NC
900 PM EST FRI JAN 30 2015

NOTE: "FAIR" INDICATES FEW OR NO CLOUDS BELOW 12,000 FEET
WITH NO SIGNIFICANT WEATHER AND/OR OBSTRUCTIONS TO VISIBILITY

NCZ015>017-031-032-045>047-102-103-310300-
NORTH COAST

CITY           SKY/WX    TMP DP  RH WIND       PRES   REMARKS
EDENTON        CLEAR     35  15  42 N16       30.19R
ELIZABETH CITY CLEAR     35  14  42 NW17G23   30.17R
KITTY HAWK     CLEAR     36  16  44 NW12G25   30.13R
MANTEO         CLEAR     36  18  48 N17G25    30.15R

$$

NCZ045>047-081-094-103-104-310300-
CENTRAL COAST

CITY           SKY/WX    TMP DP  RH WIND       PRES   REMARKS
FRISCO         CLOUDY    40  31  70 VRB6G17   30.13R
SWANQUARTER    NOT AVBL

$$

NCZ095-097-098-100-101-310300-
SOUTHERN COAST

CITY           SKY/WX    TMP DP  RH WIND       PRES   REMARKS
BEAUFORT       CLEAR     41  20  43 N17G26    30.18R
CEDAR ISLAND   NOT AVBL
JACKSONVILLE   CLEAR     40  16  37 NW17      30.21R
PINEY ISLAND     N/A    N/A N/A N/A MISG      30.16R
WILMINGTON     CLEAR     42  18  37 NW10      30.22R


$$

NCZ011>013-027>030-043-044-078>080-089-090>093-098-310300-
COASTAL PLAIN

CITY           SKY/WX    TMP DP  RH WIND       PRES   REMARKS
AHOSKIE        CLEAR     33  10  38 NW8       30.23R
CLINTON        CLEAR     40  15  37 NW8G18    30.26R
ELIZABETHTOWN  CLEAR     41  15  35 NW8       30.25R
GOLDSBORO      CLEAR     45  16  31 NW17G24   30.11R
GREENVILLE     CLEAR     37  12  35 NW8       30.22R
HAVELOCK       CLEAR     41  14  33 NW16      30.19R
KENANSVILLE    CLEAR     38  10  30 NW10G21   30.25R
KINSTON        CLEAR     37  14  38 NW10G16   30.23R
NEW BERN       CLEAR     41  13  31 NW12G23   30.20R
RICHLANDS      CLEAR     39  14  35 NW8G17    30.23R
ROCKY MOUNT    CLEAR     35  11  36 NW13      30.24R
WASHINGTON     CLEAR     37  13  37 NW13      30.20R
WHITEVILLE     CLEAR     42  14  32 CALM      30.24R

$$

AMZ130-135-150-152-154-156-158-170-250-252-270-ANZ085-086-088-633-658-670-310300-
MARINE OBSERVATIONS

STATION/POSITION TIME  TEMP    WIND        PRES    WAVE   SWELL
                       AIR SEA DIR/SP/G            HT/PER HT/PER
                 (UTC) (F)     (DEG/KT/KT) (MB)    (FT/S) (FT/S)
CHESAPEAKE LIGHT 0200   33     320/ 41/ 43 1020.7
64 E VA BEACH    0200   38 49  320/ 31/ 37 1017.4   10/ 8
DUCK             0200   37 43  320/ 29/ 39 1019.3
2 E DUCK         0200      43                N/A     6/ 6
10 NE DUCK       0200      44                N/A     8/ 6
OREGON INLET     0200   37 42  310/ 20/ 25 1020.4
13E OREGON INLT  0200      43                N/A     8/ 7   2/11
HATTERAS CG      0200   41 46  350/ 23/ 26 1020.6
DIAMOND BUOY     0200   44 66  340/ 19/ 25 1019.1    4/ 8   3/ 8
17 S OCRACOKE    NOT AVBL
CAPE LOOKOUT     0200   43     320/ 19/ 22 1021.4
BEAUFORT LAB     0200   42 46  330/ 10/ 18 1020.9
27 SE WRIGHTSVLE NOT AVBL
5 SE WRIGHTSVLE  0200   46 52  320/ 17/ 21 1023.0
225 S CAPE HAT   0132   59 71  320/ 23/ 29 1018.4   12/ 9
41 SE CHARLESTON 0200   54 68  340/ 19/ 27 1023.0    6/ 6   2/11

$$



USA.gov is the U.S. government's official web portal to all federal, state and local government web resources and services.